This is the latest recevied weather packets stored in our database for station/object EA4BCR. If no packets are shown the sender has not sent any weather packets the latest 10 day(s).
| Time | Temp. | Humidity | Pressure | Rain* | Wind** | Luminosity | Snow |
|---|---|---|---|---|---|---|---|
| 1777561011 | 22.78° C | 37% | 1012.4 hPa | - | - | - | - |
| 1777560411 | 24.44° C | 32% | 1011.9 hPa | - | - | - | - |
| 1777559811 | 23.89° C | 35% | 1012 hPa | - | - | - | - |
| 1777559211 | 25° C | 33% | 1011.6 hPa | - | - | - | - |
| 1777558611 | 23.89° C | 34% | 1012.2 hPa | - | - | - | - |
| 1777558011 | 23.89° C | 35% | 1012.1 hPa | - | - | - | - |
| 1777557411 | 24.44° C | 37% | 1012.2 hPa | - | - | - | - |
| 1777556811 | 23.89° C | 35% | 1012.4 hPa | - | - | - | - |
| 1777556211 | 23.33° C | 37% | 1012.7 hPa | - | - | - | - |
| 1777555611 | 23.89° C | 38% | 1012.7 hPa | - | - | - | - |
| 1777555011 | 23.33° C | 37% | 1012.7 hPa | - | - | - | - |
| 1777554411 | 22.78° C | 35% | 1012.9 hPa | - | - | - | - |
| 1777553811 | 23.33° C | 36% | 1012.8 hPa | - | - | - | - |
| 1777553211 | 22.22° C | 40% | 1013.3 hPa | - | - | - | - |
| 1777552611 | 21.67° C | 42% | 1013.6 hPa | - | - | - | - |
| 1777552011 | 22.78° C | 41% | 1013.1 hPa | - | - | - | - |
| 1777551411 | 22.78° C | 40% | 1013.2 hPa | - | - | - | - |
| 1777550811 | 22.78° C | 41% | 1013.2 hPa | - | - | - | - |
| 1777550211 | 21.11° C | 45% | 1013.9 hPa | - | - | - | - |
| 1777549611 | 21.67° C | 42% | 1013.7 hPa | - | - | - | - |
| 1777549011 | 21.11° C | 45% | 1014 hPa | - | - | - | - |
| 1777548411 | 22.22° C | 40% | 1013.6 hPa | - | - | - | - |
| 1777547811 | 21.67° C | 44% | 1013.8 hPa | - | - | - | - |
| 1777547211 | 21.67° C | 41% | 1013.9 hPa | - | - | - | - |
| 1777546611 | 21.67° C | 42% | 1014 hPa | - | - | - | - |
* Rain since midnight (hover to see other rain measurements)
** Current wind speed in m/s (hover to see current wind gust speed)